Oak Harbor, WA

3:09 AM PST on December 04, 2016 (GMT -0800)
Whidbey Island Naval Air Station

Weather History for KNUW - April, 2013

Change the Weather History Date:

Friday, April 26, 2013

  Actual Average Record
Temperature  
Mean Temperature 54 °F -  
Max Temperature 62 °F 55 °F 72 °F (1997)
Min Temperature 46 °F 40 °F 35 °F (2008)
Degree Days  
Heating Degree Days 12    
Growing Degree Days 4 (Base 50)    
Moisture  
Dew Point 44 °F    
Average Humidity 77    
Maximum Humidity 93    
Minimum Humidity 41    
Precipitation  
Precipitation 0.00 in - - ()
Sea Level Pressure  
Sea Level Pressure 30.24 in    
Wind  
Wind Speed 7 mph (SW)    
Max Wind Speed 12 mph    
Max Gust Speed -    
Visibility 9 miles    
Events      
Averages and records for this station are not official NWS values.
T = Trace of Precipitation, MM = Missing Value Source: NWS Daily Summary

Daily Weather History Graph

Daily Weather History Graph

Search for Another Location

Airport or City:

Trip Planner

Search our weather history database for the weather conditions in past years. The results will help you decide how hot, cold, wet, or windy it might be!

Date:

Astronomy

Apr. 26, 2013 Rise Set
Actual Time 5:59 AM PDT 8:18 PM PDT
Civil Twilight 5:25 AM PDT 8:52 PM PDT
Nautical Twilight 4:42 AM PDT 9:35 PM PDT
Astronomical Twilight 3:53 AM PDT 10:25 PM PDT
Moon 9:54 PM PDT (4/26) 6:26 AM PDT (4/26)
Length of Visible Light 15h 27m
Length of Day
14h 18m
Full, 99% of the Moon is Illuminated
Apr 26
Full
May 2
Last Quarter
May 9
New
May 17
First Quarter
May 24
Full

Hourly Weather History & Observations

Time (PDT) Temp. Windchill Dew Point Humidity Pressure Visibility Wind Dir Wind Speed Gust Speed Precip Events Conditions
12:56 AM 46.9 °F - 44.1 °F 90% 30.19 in 10.0 mi SW 6.9 mph - N/A   Mostly Cloudy
1:56 AM 46.0 °F 43.1 °F 44.1 °F 93% 30.21 in 7.0 mi SW 5.8 mph - N/A   Mostly Cloudy
2:56 AM 46.0 °F 41.9 °F 44.1 °F 93% 30.21 in 7.0 mi WSW 8.1 mph - N/A   Mostly Cloudy
3:56 AM 46.9 °F - 44.1 °F 90% 30.22 in 7.0 mi WSW 9.2 mph - N/A   Overcast
4:56 AM 46.9 °F - 44.1 °F 90% 30.23 in 6.0 mi WSW 11.5 mph - N/A   Overcast
5:56 AM 46.9 °F - 44.1 °F 90% 30.24 in 6.0 mi SW 8.1 mph - N/A   Overcast
6:56 AM 46.9 °F - 44.1 °F 90% 30.25 in 7.0 mi SW 9.2 mph - N/A   Overcast
7:56 AM 46.9 °F - 44.1 °F 90% 30.26 in 8.0 mi SW 10.4 mph - N/A   Overcast
8:56 AM 48.0 °F - 44.1 °F 86% 30.26 in 8.0 mi SSE 5.8 mph - N/A   Overcast
9:56 AM 51.1 °F - 46.0 °F 83% 30.27 in 8.0 mi Variable 4.6 mph - N/A   Overcast
10:56 AM 52.0 °F - 46.9 °F 83% 30.27 in 10.0 mi SSE 11.5 mph - N/A   Overcast
11:10 AM 53.6 °F - 48.2 °F 82% 30.26 in 10.0 mi SE 8.1 mph - N/A   Overcast
11:56 AM 57.0 °F - 48.0 °F 72% 30.27 in 10.0 mi South 8.1 mph - N/A   Overcast
12:56 PM 55.9 °F - 48.0 °F 75% 30.27 in 10.0 mi WSW 8.1 mph - N/A   Overcast
1:56 PM 59.0 °F - 48.9 °F 69% 30.27 in 10.0 mi WSW 6.9 mph - N/A   Overcast
2:56 PM 61.0 °F - 37.0 °F 41% 30.26 in 9.0 mi SW 8.1 mph - N/A   Overcast
3:56 PM 59.0 °F - 39.9 °F 49% 30.25 in 9.0 mi WSW 9.2 mph - N/A   Overcast
4:56 PM 59.0 °F - 36.0 °F 42% 30.24 in 10.0 mi SW 11.5 mph - N/A   Mostly Cloudy
5:56 PM 54.0 °F - 41.0 °F 62% 30.24 in 10.0 mi WSW 9.2 mph - N/A   Mostly Cloudy
6:56 PM 53.1 °F - 43.0 °F 69% 30.24 in 10.0 mi WSW 4.6 mph - N/A   Mostly Cloudy
7:56 PM 52.0 °F - 44.1 °F 74% 30.22 in 10.0 mi SW 4.6 mph - N/A   Overcast
8:56 PM 53.1 °F - 43.0 °F 69% 30.23 in 10.0 mi SW 4.6 mph - N/A   Overcast
9:56 PM 51.1 °F - 44.1 °F 77% 30.24 in 10.0 mi SW 4.6 mph - N/A   Overcast
10:56 PM 51.1 °F - 44.1 °F 77% 30.22 in 10.0 mi Calm Calm - N/A   Overcast
11:56 PM 50.0 °F - 44.1 °F 80% 30.21 in 10.0 mi WSW 3.5 mph - N/A   Overcast